"2022-07-15 00:01:00",3025125,2.245333,297.8668,2.028441,0.1539639,2.6,0,0.5473334,298.7442,7.210953,0.1221183,0.89,0,-999,0,11.1,83.7,11.13,11.18,0.2,0,0,10.61,13.27,0.2,102.3462,3.318,3.319,3.316,100,0,0,0,169.2,114.6,114.6
"2022-07-15 00:02:00",3025126,2.278666,298.3331,2.412686,0.2182007,2.74,0,0.6473333,303.3018,9.104945,0.09835085,0.78,0,-999,0,11.11,83.8,11.13,11.18,0.2,0,0,10.61,13.27,0.2,102.3388,3.318,3.32,3.318,100,0,0,0,169.2,114.6,114.6
"2022-07-15 00:03:00",3025127,2.216,299.2,1.557483,0.126111,2.36,0,0.5453333,308.3981,6.233702,0.1540072,0.85,0,-999,0,11.09,83.8,11.13,11.18,0.2,0,0,10.58,13.27,0.2,102.3391,3.318,3.319,3.316,100,0,0,0,169.2,114.6,114.6
"2022-07-15 00:04:00",3025128,2.390667,299.2668,2.350998,0.0928416,2.65,0,0.5839999,313.9297,9.676435,0.1336064,0.82,0,-999,0,11.09,83.8,11.11,11.15,0.2,0,0,10.56,13.27,0.2,102.3321,3.317,3.319,3.316,100,0,0,0,169.2,114.6,114.6
"2022-07-15 00:05:00",3025129,2.376,299.6002,1.925064,0.1504571,2.62,0,0.6146667,311.8638,5.734008,0.08114733,0.8,0,-999,0,11.07,83.9,11.11,11.15,0.2,0,0,10.54,13.26,0.2,102.334,3.317,3.318,3.317,100,0,0,0,169.2,114.6,114.6
"2022-07-15 00:06:00",3025130,2.472,301.2001,2.006356,0.09987994,2.7,0,0.7766667,309.5276,6.836231,0.1457243,1.12,0,-999,0,11.08,84,11.13,11.17,0.2,0,0,10.53,13.27,0.2,102.3399,3.316,3.319,3.316,100,0,0,0,169.2,114.6,114.6
"2022-07-15 00:07:00",3025131,2.36,301.0668,1.525992,0.1226377,2.53,0,0.7253334,308.7934,5.264553,0.1577283,0.97,0,-999,0,11.07,84,11.1,11.16,0.2,0,0,10.52,13.27,0.2,102.3419,3.316,3.316,3.316,100,0,0,0,169.2,114.6,114.6
"2022-07-15 00:08:00",3025132,2.521333,302.5334,1.707339,0.1778714,2.85,0,0.6333333,309.2188,7.224247,0.09547541,0.76,0,-999,0,11.05,84.1,11.11,11.16,0.2,0,0,10.5,13.27,0.2,102.3408,3.317,3.317,3.315,100,0,0,0,169.2,114.6,114.6
"2022-07-15 00:09:00",3025133,2.468,302.6664,1.849742,0.1500755,2.75,0,0.7686667,311.5971,5.082176,0.07948724,0.89,0,-999,0,11.04,84.1,11.11,11.15,0.2,0,0,10.49,13.27,0.2,102.3397,3.318,3.318,3.315,100,0,0,0,169.2,114.6,114.6
"2022-07-15 00:10:00",3025134,2.414,305.5311,3.517808,0.1345015,2.67,0,0.6666667,315.2975,7.923243,0.1731537,0.91,0,-999,0,11.04,84.2,11.11,11.16,0.2,0,0,10.47,13.27,0.2,102.3449,3.315,3.319,3.315,100,0,0,0,169.2,114.6,114.6
"2022-07-15 00:11:00",3025135,2.470667,303.4671,1.857032,0.08053709,2.63,0,0.5713332,312.0715,8.107468,0.1455503,0.82,0,-999,0,11.05,84.3,11.12,11.17,0.2,0,0,10.46,13.27,0.2,102.3378,3.317,3.317,3.314,100,0,0,0,169.2,114.6,114.6
"2022-07-15 00:12:00",3025136,2.394,303.7334,1.768846,0.09624967,2.59,0,0.7126667,317.2656,5.834831,0.1578382,1.01,0,-999,0,11.05,84.4,11.13,11.17,0.2,0,0,10.45,13.27,0.2,102.3376,3.318,3.319,3.317,100,0,0,0,169.2,114.6,114.6
"2022-07-15 00:13:00",3025137,2.464667,303.3334,1.299514,0.05512004,2.58,0,0.65,318.9178,8.087945,0.1624397,1.03,0,-999,0,11.06,84.5,11.13,11.2,0.2,0,0,10.44,13.27,0.2,102.3496,3.317,3.318,3.317,100,0,0,0,169.2,114.6,114.6
"2022-07-15 00:14:00",3025138,2.477333,304.6665,1.920481,0.1707812,2.7,0,0.752,320.4397,8.245394,0.1488265,1.01,0,-999,0,11.06,84.6,11.16,11.21,0.2,0,0,10.43,13.27,0.2,102.3537,3.317,3.317,3.315,100,0,0,0,169.2,114.6,114.6
"2022-07-15 00:15:00",3025139,2.423333,304.8673,1.995002,0.1236482,2.63,0,0.7080001,322.4121,5.719103,0.1496752,0.97,0,-999,0,11.07,84.7,11.18,11.22,0.2,0,0,10.43,13.27,0.2,102.3499,3.317,3.319,3.317,100,0,0,0,169.2,114.6,114.6
"2022-07-15 00:16:00",3025140,2.295333,307.6667,1.445148,0.1339087,2.57,0,0.5686667,328.4288,14.24784,0.1578128,0.93,0,-999,0,11.09,84.7,11.19,11.25,0.2,0,0,10.43,13.27,0.2,102.35,3.317,3.317,3.315,100,0,0,0,169.2,114.6,114.6
"2022-07-15 00:17:00",3025141,2.336667,307.8669,1.820721,0.1396026,2.69,0,0.6926667,329.2926,13.2976,0.09088209,0.82,0,-999,0,11.09,84.8,11.2,11.27,0.2,0,0,10.43,13.27,0.2,102.3502,3.315,3.317,3.314,100,0,0,0,169.2,114.6,114.6
"2022-07-15 00:18:00",3025142,2.477333,306.5999,1.818246,0.09989773,2.64,0,0.69,324.187,7.772908,0.1444991,0.92,0,-999,0,11.1,85,11.24,11.29,0.2,0,0,10.43,13.27,0.2,102.3528,3.315,3.317,3.315,100,0,0,0,169.2,114.6,114.6
"2022-07-15 00:19:00",3025143,2.487334,306.8667,1.359654,0.1622125,2.82,0,0.6940001,319.5805,12.16968,0.1451344,0.99,0,-999,0,11.12,85.1,11.28,11.31,0.2,0,0,10.43,13.26,0.2,102.3449,3.317,3.317,3.313,100,0,0,0,169.2,114.6,114.6
"2022-07-15 00:20:00",3025144,2.546,306.6003,1.582917,0.1260582,2.77,0,0.612,314.5981,8.286677,0.1445545,0.86,0,-999,0,11.14,85.2,11.33,11.37,0.2,0,0,10.43,13.27,0.2,102.3494,3.315,3.317,3.315,100,0,0,0,169.2,114.6,114.6
"2022-07-15 00:21:00",3025145,2.549333,305.7335,1.435839,0.07593562,2.69,0,0.786,312.2062,9.256001,0.1493006,1.02,0,-999,0,11.18,85.3,11.39,11.43,0.2,0,0,10.43,13.27,0.2,102.3498,3.315,3.317,3.315,100,0,0,0,169.2,114.6,114.6
"2022-07-15 00:22:00",3025146,2.389333,306.7334,1.236296,0.1478498,2.69,0,0.7026666,311.7853,9.112681,0.1758965,1.1,0,-999,0,11.21,85.3,11.44,11.46,0.2,0,0,10.43,13.27,0.2,102.3537,3.317,3.317,3.314,100,0,0,0,169.2,114.6,114.6
"2022-07-15 00:23:00",3025147,2.254,305.867,2.334148,0.1124159,2.49,0,0.6033333,313.5023,11.34854,0.1664398,0.9,0,-999,0,11.27,85.3,11.44,11.49,0.2,0,0,10.44,13.26,0.2,102.3514,3.314,3.317,3.314,100,0,0,0,169.2,114.6,114.6
"2022-07-15 00:24:00",3025148,2.098667,307.2661,1.981854,0.08492088,2.27,0,0.65,320.8794,14.88515,0.1913809,1.02,0,-999,0,11.3,85.3,11.49,11.52,0.2,0,0,10.45,13.27,0.2,102.3463,3.317,3.317,3.314,100,0,0,0,169.2,114.6,114.6
"2022-07-15 00:25:00",3025149,2.033333,308.6,1.583165,0.1378727,2.21,0,0.6706667,332.6729,8.920562,0.1093902,0.9,0,-999,0,11.33,85.3,11.49,11.54,0.2,0,0,10.47,13.27,0.2,102.3495,3.315,3.317,3.315,100,0,0,0,169.2,114.6,114.6
"2022-07-15 00:26:00",3025150,2.068667,311.4666,2.124735,0.1547414,2.42,0,0.622,334.4586,10.7598,0.1339751,0.93,0,-999,0,11.35,85.2,11.51,11.57,0.2,0,0,10.47,13.27,0.2,102.3497,3.317,3.317,3.315,100,0,0,0,169.2,114.6,114.6
"2022-07-15 00:27:00",3025151,2.136667,312.7995,3.080939,0.1247219,2.31,0,0.5886667,335.073,13.46379,0.1109274,0.75,0,-999,0,11.36,85.2,11.54,11.58,0.2,0,0,10.47,13.27,0.2,102.3565,3.317,3.317,3.314,100,0,0,0,169.2,114.6,114.6
"2022-07-15 00:28:00",3025152,2.031333,314.6666,1.534882,0.08754934,2.21,0,0.7586667,331.9255,6.814322,0.09178719,0.9,0,-999,0,11.38,85.2,11.58,11.6,0.2,0,0,10.49,13.27,0.2,102.359,3.317,3.32,3.317,100,0,0,0,169.2,114.6,114.6
"2022-07-15 00:29:00",3025153,2.168,312.3324,3.319585,0.134323,2.41,0,0.7533333,328.3425,5.800649,0.1489817,0.94,0,-999,0,11.39,85.1,11.58,11.6,0.2,0,0,10.5,13.27,0.2,102.3538,3.314,3.318,3.314,100,0,0,0,169.2,114.6,114.6
"2022-07-15 00:30:00",3025154,2.356667,317.1905,5.930295,0.5161352,3.29,0,0.7826666,331.2976,11.52968,0.1611404,1.13,0,-999,0,11.42,84.9,11.6,11.61,0.2,0,0,10.52,13.27,0.2,102.3552,3.318,3.318,3.314,100,0,0,0,169.2,114.6,114.6
"2022-07-15 00:31:00",3025155,2.321333,313.799,3.635807,0.1326583,2.65,0,0.9906666,319.1347,9.947856,0.215823,1.38,0,-999,0,11.49,84.9,11.73,11.72,0.2,0,0,10.52,13.27,0.2,102.3514,3.317,3.318,3.317,100,0,0,0,169.2,114.6,114.6
"2022-07-15 00:32:00",3025156,2.221333,313.3342,2.649529,0.1593263,2.55,0,0.684,329.4951,13.59068,0.1450885,0.98,0,-999,0,11.55,84.6,11.74,11.76,0.2,0,0,10.53,13.27,0.2,102.354,3.317,3.317,3.316,100,0,0,0,169.2,114.6,114.6
"2022-07-15 00:33:00",3025157,2.296666,313.2,2.315103,0.1158543,2.56,0,0.8560001,326.4458,10.05877,0.171223,1.17,0,-999,0,11.58,84.6,11.75,11.75,0.2,0,0,10.55,13.27,0.2,102.3437,3.316,3.317,3.314,100,0,0,0,169.2,114.6,114.6
"2022-07-15 00:34:00",3025158,2.195333,311.8005,2.285767,0.1292474,2.53,0,0.684,317.0884,12.90144,0.1797331,1.15,0,-999,0,11.61,84.5,11.79,11.77,0.2,0,0,10.56,13.27,0.2,102.3546,3.317,3.317,3.316,100,0,0,0,169.2,114.6,114.6
"2022-07-15 00:35:00",3025159,2.081333,314.7333,1.651912,0.1001909,2.31,0,0.6166666,328.3782,10.6611,0.1569996,0.86,0,-999,0,11.64,84.5,11.82,11.8,0.2,0,0,10.58,13.27,0.2,102.3523,3.316,3.317,3.314,100,0,0,0,169.2,114.6,114.6
"2022-07-15 00:36:00",3025160,2.048,315.8002,2.135263,0.07520641,2.17,0,0.7086667,324.3307,7.252241,0.1236051,0.96,0,-999,0,11.66,84.5,11.87,11.82,0.2,0,0,10.6,13.27,0.2,102.3456,3.316,3.317,3.315,100,0,0,0,169.2,114.6,114.6
"2022-07-15 00:37:00",3025161,1.924667,313.4003,1.993234,0.1121824,2.11,0,0.5513333,321.98,13.22099,0.1516516,0.87,0,-999,0,11.69,84.5,11.88,11.86,0.2,0,0,10.61,13.27,0.2,102.3464,3.319,3.319,3.316,100,0,0,0,169.2,114.6,114.6
"2022-07-15 00:38:00",3025162,1.786,314.7328,2.541802,0.09998665,1.91,0,0.5406666,331.8335,13.84495,0.1294844,0.74,0,-999,0,11.72,84.6,11.9,11.89,0.2,0,0,10.63,13.27,0.2,102.3397,3.317,3.319,3.317,100,0,0,0,169.2,114.6,114.6
"2022-07-15 00:39:00",3025163,1.723333,315.4005,2.702802,0.1113353,1.95,0,0.5986666,334.0622,6.614976,0.1049995,0.74,0,-999,0,11.74,84.6,11.93,11.89,0.2,0,0,10.65,13.27,0.2,102.3456,3.317,3.318,3.316,100,0,0,0,169.2,114.6,114.6
"2022-07-15 00:40:00",3025164,1.741333,313.2037,4.148609,0.1550426,1.97,0,0.526,331.1386,5.71034,0.082203,0.67,0,-999,0,11.77,84.5,11.94,11.91,0.2,0,0,10.67,13.27,0.2,102.3403,3.315,3.318,3.315,100,0,0,0,169.2,114.6,114.6
"2022-07-15 00:41:00",3025165,1.696,313.7341,3.802303,0.08897939,1.91,0,0.5866667,331.1363,11.1095,0.1507168,0.82,0,-999,0,11.79,84.5,11.95,11.95,0.2,0,0,10.69,13.26,0.2,102.3483,3.317,3.317,3.314,100,0,0,0,169.2,114.6,114.6
"2022-07-15 00:42:00",3025166,1.732,312.6669,4.236156,0.115597,1.88,0,0.502,328.3876,14.94126,0.1691627,0.85,0,-999,0,11.81,84.4,11.97,11.95,0.2,0,0,10.7,13.27,0.2,102.3462,3.317,3.318,3.317,100,0,0,0,169.2,114.6,114.6
"2022-07-15 00:43:00",3025167,1.712667,314.2664,3.990347,0.1076703,1.93,0,0.6566667,330.6687,5.592905,0.1188089,0.83,0,-999,0,11.81,84.2,11.98,11.95,0.2,0,0,10.72,13.27,0.2,102.3416,3.318,3.318,3.317,100,0,0,0,169.2,114.6,114.6
"2022-07-15 00:44:00",3025168,1.808,312.0036,4.658615,0.154928,2.13,0,0.5946666,330.0073,6.671748,0.1240896,0.82,0,-999,0,11.82,84.1,11.98,11.95,0.2,0,0,10.76,13.27,0.2,102.3417,3.318,3.318,3.315,100,0,0,0,169.2,114.6,114.6
"2022-07-15 00:45:00",3025169,1.784667,311.5321,3.158995,0.1003239,1.92,0,0.6406667,328.2667,4.580864,0.1429903,0.83,0,-999,0,11.84,84,11.99,11.95,0.2,0,0,10.77,13.27,0.2,102.3414,3.317,3.319,3.317,100,0,0,0,169.2,114.6,114.6
"2022-07-15 00:46:00",3025170,1.731333,311.0651,4.3569,0.1493036,1.98,0,0.5266668,319.7448,14.69086,0.1344454,0.72,0,-999,0,11.85,83.9,11.99,11.95,0.2,0,0,10.79,13.27,0.2,102.3428,3.319,3.319,3.316,100,0,0,0,169.2,114.6,114.6
"2022-07-15 00:47:00",3025171,1.705333,309.5989,2.702259,0.1224672,1.94,0,0.7493334,320.858,5.914259,0.1560542,1.1,0,-999,0,11.86,83.8,11.99,11.95,0.2,0,0,10.81,13.27,0.2,102.3394,3.318,3.319,3.316,100,0,0,0,169.2,114.6,114.6
"2022-07-15 00:48:00",3025172,1.732,307.0721,5.021798,0.2046851,2.25,0,0.4786667,306.0967,16.25784,0.1696611,0.85,0,-999,0,11.87,83.7,12,11.96,0.2,0,0,10.81,13.27,0.2,102.3334,3.316,3.319,3.316,100,0,0,0,169.2,114.6,114.6
"2022-07-15 00:49:00",3025173,1.543333,305,1.632959,0.07198764,1.64,0,0.5553333,308.5339,12.73878,0.1159234,0.73,0,-999,0,11.89,83.5,12,11.95,0.2,0,0,10.82,13.27,0.2,102.3432,3.316,3.318,3.316,100,0,0,0,169.2,114.6,114.6
"2022-07-15 00:50:00",3025174,1.622667,308.9992,4.439932,0.1462631,1.88,0,0.5226667,318.205,7.568274,0.1025324,0.71,0,-999,0,11.9,83.4,11.98,11.95,0.2,0,0,10.83,13.27,0.2,102.3398,3.318,3.319,3.316,100,0,0,0,169.2,114.6,114.6
"2022-07-15 00:51:00",3025175,1.679333,313.9382,6.4634,0.1436879,2.01,0,0.492,339.2181,13.02823,0.110526,0.67,0,-999,0,11.88,83.4,11.95,11.93,0.2,0,0,10.85,13.26,0.2,102.3435,3.317,3.318,3.316,100,0,0,0,169.2,114.6,114.6
"2022-07-15 00:52:00",3025176,1.715333,318.7331,4.218078,0.1582347,2,0,0.6053334,349.6677,10.65241,0.1587815,0.93,0,-999,0,11.87,83.4,11.96,11.92,0.2,0,0,10.86,13.27,0.2,102.3433,3.318,3.318,3.317,100,0,0,0,169.2,114.6,114.6
"2022-07-15 00:53:00",3025177,1.986,317.4008,4.078592,0.3408577,2.72,0,0.5786667,346.7302,10.23537,0.1249995,0.83,0,-999,0,11.88,83.4,11.95,11.91,0.2,0,0,10.86,13.27,0.2,102.3418,3.316,3.319,3.316,100,0,0,0,169.2,114.6,114.6
"2022-07-15 00:54:00",3025178,1.816667,319.3416,10.50953,0.2460533,2.15,0,0.6273334,343.8816,11.31739,0.1330397,0.8,0,-999,0,11.87,83.3,11.93,11.9,0.2,0,0,10.87,13.27,0.2,102.3419,3.318,3.319,3.315,100,0,0,0,169.2,114.6,114.6
"2022-07-15 00:55:00",3025179,1.618667,326.0748,4.691086,0.1126568,1.9,0,0.732,11.13233,6.340045,0.1663811,0.95,0,-999,0,11.86,83.2,11.92,11.89,0.2,0,0,10.88,13.27,0.2,102.3412,3.316,3.318,3.316,100,0,0,0,169.2,114.6,114.6
"2022-07-15 00:56:00",3025180,1.933333,323.8666,2.679426,0.2179806,2.43,0,0.7626667,2.925833,7.163435,0.1044009,0.92,0,-999,0,11.83,83.2,11.9,11.88,0.2,0,0,10.88,13.27,0.2,102.3358,3.316,3.318,3.315,100,0,0,0,169.2,114.6,114.6
"2022-07-15 00:57:00",3025181,1.92,330.7957,5.164238,0.1580717,2.3,0,0.8653334,356.2931,18.07396,0.117409,1.06,0,-999,0,11.82,83.1,11.87,11.87,0.2,0,0,10.88,13.27,0.2,102.343,3.318,3.318,3.316,100,0,0,0,169.2,114.6,114.6
"2022-07-15 00:58:00",3025182,1.956,336.1328,2.499359,0.1610714,2.31,0,0.8540001,1.73609,8.006295,0.1521753,1.13,0,-999,0,11.8,82.9,11.86,11.82,0.2,0,0,10.9,13.27,0.2,102.3421,3.319,3.32,3.319,100,0,0,0,169.2,114.6,114.6
"2022-07-15 00:59:00",3025183,1.742,335.1896,7.346732,0.1465242,2.03,0,0.7113333,2.235635,10.31583,0.1467363,0.89,0,-999,0,11.79,82.9,11.86,11.8,0.2,0,0,10.9,13.26,0.2,102.3412,3.318,3.319,3.316,100,0,0,0,169.2,114.6,114.6
"2022-07-15 01:00:00",3025184,1.739333,331.07,6.502864,0.1806827,2.06,0,0.8293333,356.8212,11.66377,0.222035,1.32,0,-999,0,11.79,82.9,11.87,11.83,0.2,0,0,10.9,13.27,0.2,102.3401,3.319,3.32,3.318,100,0,0,0,169.2,114.6,114.6
"2022-07-15 01:01:00",3025185,1.412667,343.2551,11.48597,0.2377805,1.86,0,0.7766666,343.3186,8.096309,0.1575083,0.98,0,-999,0,11.79,82.8,11.87,11.81,0.2,0,0,10.9,13.27,0.2,102.3381,3.317,3.32,3.317,100,0,0,0,169.2,114.6,114.6
"2022-07-15 01:02:00",3025186,1.405333,346.7445,7.803044,0.1929375,1.77,0,0.6306667,350.1505,9.15446,0.1437807,0.88,0,-999,0,11.79,82.7,11.88,11.84,0.2,0,0,10.9,13.27,0.2,102.3337,3.32,3.32,3.316,100,0,0,0,169.2,114.6,114.6
"2022-07-15 01:03:00",3025187,1.314667,341.8648,11.29233,0.1303261,1.47,0,0.4613333,18.14747,13.97946,0.1234972,0.66,0,-999,0,11.78,82.6,11.86,11.8,0.2,0,0,10.9,13.27,0.2,102.3323,3.318,3.32,3.317,100,0,0,0,169.2,114.6,114.6
"2022-07-15 01:04:00",3025188,1.328,348.5918,9.373921,0.1609638,1.61,0,0.7193334,23.79415,8.0439,0.1161302,0.85,0,-999,0,11.77,82.7,11.85,11.8,0.2,0,0,10.9,13.26,0.2,102.3329,3.316,3.32,3.316,100,0,0,0,169.2,114.6,114.6
"2022-07-15 01:05:00",3025189,1.445333,345.5001,9.136462,0.142308,1.6,0,0.7026666,33.67542,7.450438,0.1307653,0.97,0,-999,0,11.76,82.8,11.79,11.78,0.2,0,0,10.9,13.27,0.2,102.3341,3.317,3.319,3.316,100,0,0,0,169.2,114.6,114.6
"2022-07-15 01:06:00",3025190,1.518,347.933,2.815566,0.1349173,1.83,0,0.6546666,27.88199,7.051611,0.1184267,0.85,0,-999,0,11.74,82.9,11.75,11.74,0.2,0,0,10.9,13.27,0.2,102.335,3.316,3.319,3.316,100,0,0,0,169.2,114.6,114.6
"2022-07-15 01:07:00",3025191,1.428667,342.0664,5.494149,0.1697397,1.6,0,0.4106666,35.1268,20.80024,0.1281388,0.64,0,-999,0,11.7,83,11.71,11.72,0.2,0,0,10.92,13.26,0.2,102.3375,3.321,3.321,3.316,100,0,0,0,169.2,114.6,114.6
"2022-07-15 01:08:00",3025192,1.343333,328.8005,5.379991,0.1604854,1.73,0,0.2533334,21.09983,22.46155,0.06446359,0.38,0,-999,0,11.66,83,11.67,11.67,0.2,0,0,10.93,13.27,0.2,102.3346,3.319,3.321,3.319,100,0,0,0,169.2,114.6,114.6
"2022-07-15 01:09:00",3025193,1.394,328.1895,6.455907,0.08073001,1.58,0,0.36,349.1721,15.18926,0.09777525,0.56,0,-999,0,11.64,83.1,11.65,11.65,0.2,0,0,10.93,13.27,0.2,102.3382,3.319,3.319,3.317,100,0,0,0,169.2,114.6,114.6
"2022-07-15 01:10:00",3025194,1.394667,328.1249,5.894199,0.2479749,1.97,0,0.5933334,359.9445,9.994509,0.07390685,0.73,0,-999,0,11.61,83.1,11.63,11.63,0.2,0,0,10.93,13.27,0.2,102.3298,3.318,3.319,3.317,100,0,0,0,169.2,114.6,114.6
"2022-07-15 01:11:00",3025195,1.362,329.9311,5.566081,0.138958,1.6,0,0.6086666,8.121894,7.801174,0.07632096,0.76,0,-999,0,11.6,83.1,11.61,11.59,0.2,0,0,10.93,13.27,0.2,102.3305,3.318,3.321,3.318,100,0,0,0,169.2,114.6,114.6
"2022-07-15 01:12:00",3025196,1.364667,332.5351,5.782829,0.1159233,1.68,0,0.5846666,8.250044,7.838592,0.1041708,0.79,0,-999,0,11.58,83.4,11.61,11.59,0.2,0,0,10.93,13.27,0.2,102.3329,3.318,3.32,3.317,100,0,0,0,169.2,114.6,114.6
"2022-07-15 01:13:00",3025197,1.260667,321.8718,4.741909,0.08441696,1.51,0,0.4246667,10.72905,11.46835,0.07301749,0.53,0,-999,0,11.56,83.6,11.6,11.59,0.2,0,0,10.93,13.27,0.2,102.3393,3.318,3.32,3.317,100,0,0,0,169.2,114.6,114.6
"2022-07-15 01:14:00",3025198,1.256667,324.2284,9.139062,0.1721111,1.6,0,0.4386666,18.19771,17.18248,0.0604281,0.6,0,-999,0,11.54,83.8,11.56,11.59,0.2,0,0,10.93,13.27,0.2,102.3369,3.317,3.32,3.316,100,0,0,0,169.2,114.6,114.6
"2022-07-15 01:15:00",3025199,1.051333,334.3455,9.133436,0.105063,1.32,0,0.5733334,37.53267,3.007615,0.0396092,0.63,0,-999,0,11.52,83.9,11.55,11.57,0.2,0,0,10.93,13.27,0.2,102.3423,3.317,3.319,3.316,100,0,0,0,169.2,114.6,114.6
"2022-07-15 01:16:00",3025200,0.9953334,341.7865,7.17135,0.1118848,1.18,0,0.5366667,49.00246,5.187609,0.0291357,0.57,0,-999,0,11.49,84,11.51,11.54,0.2,0,0,10.91,13.27,0.2,102.3346,3.32,3.32,3.317,100,0,0,0,169.2,114.6,114.6
"2022-07-15 01:17:00",3025201,1.060667,336.1354,4.615814,0.08410046,1.19,0,0.5673333,57.20015,3.249542,0.04312257,0.65,0,-999,0,11.46,84.1,11.47,11.5,0.2,0,0,10.9,13.27,0.2,102.3296,3.317,3.32,3.316,100,0,0,0,169.2,114.6,114.6
"2022-07-15 01:18:00",3025202,0.9873332,335.4001,4.331276,0.05531324,1.08,0,0.606,58.59893,3.281703,0.03755885,0.66,0,-999,0,11.43,84.4,11.46,11.49,0.2,0,0,10.9,13.27,0.2,102.3368,3.318,3.32,3.316,100,0,0,0,169.2,114.6,114.6
"2022-07-15 01:19:00",3025203,0.9399999,330.1333,5.300039,0.07465475,1.05,0,0.5373333,63.40517,5.555753,0.03108412,0.6,0,-999,0,11.41,84.6,11.49,11.5,0.2,0,0,10.9,13.27,0.2,102.3359,3.319,3.321,3.317,100,0,0,0,169.2,114.6,114.6
"2022-07-15 01:20:00",3025204,0.8906667,327.1965,4.165242,0.05960612,1,0,0.45,74.73181,4.056624,0.04335897,0.52,0,-999,0,11.38,84.8,11.48,11.5,0.2,0,0,10.9,13.26,0.2,102.3396,3.319,3.32,3.317,100,0,0,0,169.2,114.6,114.6
"2022-07-15 01:21:00",3025205,0.8966668,323.4663,3.383118,0.05362421,0.98,0,0.3993334,74.5993,3.220596,0.02235073,0.43,0,-999,0,11.36,84.7,11.46,11.49,0.2,0,0,10.88,13.27,0.2,102.3378,3.319,3.32,3.316,100,0,0,0,169.2,114.6,114.6
"2022-07-15 01:22:00",3025206,0.7606667,321.1259,6.453351,0.07558365,0.9,0,0.3593334,78.66454,4.252378,0.03923718,0.41,0,-999,0,11.34,84.7,11.42,11.45,0.2,0,0,10.87,13.27,0.2,102.3286,3.317,3.32,3.316,100,0,0,0,169.2,114.6,114.6
"2022-07-15 01:23:00",3025207,0.7633334,313.3312,5.916009,0.06569288,0.89,0,0.3806667,79.39841,4.07852,0.04138706,0.43,0,-999,0,11.32,84.6,11.41,11.43,0.2,0,0,10.86,13.27,0.2,102.3345,3.317,3.319,3.316,100,0,0,0,169.2,114.6,114.6
"2022-07-15 01:24:00",3025208,0.866,310.2013,6.573224,0.1514728,1.13,0,0.212,92.73336,4.723501,0.04763753,0.32,0,-999,0,11.3,84.7,11.4,11.43,0.2,0,0,10.85,13.27,0.2,102.3295,3.32,3.32,3.316,100,0,0,0,169.2,114.6,114.6
"2022-07-15 01:25:00",3025209,0.81,303.8,2.534777,0.04066121,0.89,0,0.176,111.1399,13.84919,0.02059126,0.22,0,-999,0,11.28,84.6,11.33,11.37,0.2,0,0,10.84,13.26,0.2,102.3283,3.316,3.321,3.316,100,0,0,0,169.2,114.6,114.6
"2022-07-15 01:26:00",3025210,1.036,304.0665,2.93123,0.1267964,1.27,0,0.128,103.9221,7.375764,0.01939072,0.16,0,-999,0,11.24,84.4,11.26,11.32,0.2,0,0,10.82,13.27,0.2,102.3336,3.32,3.32,3.317,100,0,0,0,169.2,114.6,114.6
"2022-07-15 01:27:00",3025211,1.150667,309.9987,3.740947,0.1251381,1.34,0,0.064,143.7562,15.63133,0.02274496,0.09,0,-999,0,11.2,84.2,11.19,11.26,0.2,0,0,10.81,13.27,0.2,102.3288,3.317,3.32,3.316,100,0,0,0,169.2,114.6,114.6
"2022-07-15 01:28:00",3025212,1.176,307.3463,5.538596,0.09407798,1.35,0,0.106,206.6216,31.7164,0.028,0.15,0,-999,0,11.16,84.1,11.12,11.19,0.2,0,0,10.8,13.26,0.2,102.3306,3.319,3.319,3.316,100,0,0,0,169.2,114.6,114.6
"2022-07-15 01:29:00",3025213,1.152667,309.5334,3.159244,0.06495811,1.24,0,0.07266666,267.1667,29.28162,0.01123487,0.09,0,-999,0,11.14,84.1,11.08,11.14,0.2,0,0,10.78,13.27,0.2,102.3282,3.319,3.319,3.316,100,0,0,0,169.2,114.6,114.6
"2022-07-15 01:30:00",3025214,1.174,312.3333,1.885598,0.05862877,1.27,0,0.1133333,281.7342,7.718671,0.01445299,0.14,0,-999,0,11.09,84,11.03,11.12,0.2,0,0,10.77,13.27,0.2,102.329,3.316,3.32,3.316,100,0,0,0,169.2,114.6,114.6
"2022-07-15 01:31:00",3025215,1.174,309.4,1.583103,0.05314132,1.24,0,0.102,264.4995,19.48404,0.01375984,0.12,0,-999,0,11.05,83.8,10.95,11.05,0.2,0,0,10.72,13.27,0.2,102.3325,3.317,3.319,3.316,100,0,0,0,169.2,114.6,114.6
"2022-07-15 01:32:00",3025216,1.172667,310.1333,1.543341,0.05359934,1.26,0,0.1513333,266.7697,21.58228,0.02895207,0.22,0,-999,0,11.02,83.9,10.9,11,0.2,0,0,10.71,13.27,0.2,102.3283,3.317,3.319,3.316,100,0,0,0,169.2,114.6,114.6
"2022-07-15 01:33:00",3025217,1.28,308.7335,1.181573,0.05202562,1.38,0,0.324,292.8668,2.246785,0.04882622,0.4,0,-999,0,10.99,84,10.84,10.94,0.2,0,0,10.7,13.26,0.2,102.3314,3.317,3.319,3.316,100,0,0,0,169.2,114.6,114.6
"2022-07-15 01:34:00",3025218,1.424667,307.6,1.142839,0.05239169,1.52,0,0.4646667,297.9331,1.948119,0.04702717,0.56,0,-999,0,11,84.9,10.9,10.96,0.2,0,0,10.67,13.27,0.2,102.3365,3.317,3.319,3.316,100,0,0,0,169.2,114.6,114.6
"2022-07-15 01:35:00",3025219,1.510667,308.2667,1.062431,0.05915703,1.6,0,0.5846667,296.6702,3.874161,0.03556528,0.66,0,-999,0,11.03,85.7,11.05,11.06,0.2,0,0,10.65,13.27,0.2,102.3359,3.318,3.32,3.317,100,0,0,0,169.2,114.6,114.6
"2022-07-15 01:36:00",3025220,1.562,307.5999,1.496588,0.03709448,1.63,0,0.5573333,289.8698,5.08295,0.07987212,0.71,0,-999,0,11.07,86.3,11.21,11.17,0.2,0,0,10.64,13.27,0.2,102.334,3.318,3.319,3.316,100,0,0,0,169.2,114.6,114.6
"2022-07-15 01:37:00",3025221,1.621333,306.7333,0.4419084,0.03116977,1.69,0,0.6073333,291.4746,5.962984,0.05131168,0.65,0,-999,0,11.11,86.6,11.28,11.28,0.2,0,0,10.61,13.27,0.2,102.3397,3.318,3.32,3.318,100,0,0,0,169.2,114.6,114.6
"2022-07-15 01:38:00",3025222,1.558667,304.6667,1.074885,0.03537735,1.62,0,0.632,287.8697,4.615793,0.05153639,0.7,0,-999,0,11.13,86.9,11.34,11.34,0.2,0,0,10.6,13.27,0.2,102.3302,3.316,3.32,3.316,100,0,0,0,169.2,114.5,114.6
"2022-07-15 01:39:00",3025223,1.532,303.3334,1.849742,0.02535085,1.56,0,0.5653333,286.8671,5.056826,0.06859221,0.7,0,-999,0,11.14,87.1,11.33,11.39,0.2,0,0,10.57,13.27,0.2,102.332,3.319,3.32,3.316,100,0,0,0,169.2,114.6,114.6
"2022-07-15 01:40:00",3025224,1.464667,303.2667,0.8534284,0.02872088,1.52,0,0.5913333,295.136,4.935386,0.07079234,0.74,0,-999,0,11.16,87.2,11.34,11.42,0.2,0,0,10.55,13.27,0.2,102.3351,3.318,3.319,3.317,100,0,0,0,169.2,114.5,114.5
"2022-07-15 01:41:00",3025225,1.475333,298.0667,1.611052,0.06781019,1.58,0,0.626,297.6623,6.600304,0.0781281,0.77,0,-999,0,11.15,87.3,11.34,11.41,0.2,0,0,10.53,13.26,0.2,102.3373,3.317,3.318,3.315,100,0,0,0,169.2,114.5,114.5
"2022-07-15 01:42:00",3025226,1.504,299.5333,1.087556,0.03517573,1.58,0,0.4966666,300.8896,7.462508,0.09505554,0.64,0,-999,0,11.14,87.4,11.32,11.41,0.2,0,0,10.52,13.27,0.2,102.3343,3.318,3.319,3.317,100,0,0,0,169.2,114.5,114.5
"2022-07-15 01:43:00",3025227,1.58,297.7999,1.557545,0.02607683,1.63,0,0.528,292.0767,9.691607,0.06949341,0.67,0,-999,0,11.12,87.4,11.27,11.37,0.2,0,0,10.5,13.27,0.2,102.3373,3.317,3.319,3.317,100,0,0,0,169.2,114.5,114.5
"2022-07-15 01:44:00",3025228,1.669333,298.2667,0.8538869,0.07307226,1.79,0,0.5246667,294.6664,3.892613,0.0648965,0.62,0,-999,0,11.1,87.3,11.23,11.34,0.2,0,0,10.47,13.26,0.2,102.3453,3.317,3.318,3.314,100,0,0,0,169.2,114.5,114.5
"2022-07-15 01:45:00",3025229,1.808,301.2667,0.9282314,0.02372062,1.85,0,0.5706667,292.2722,4.901668,0.08835283,0.69,0,-999,0,11.1,87.3,11.18,11.31,0.2,0,0,10.46,13.27,0.2,102.3388,3.319,3.319,3.317,100,0,0,0,169.2,114.6,114.5
"2022-07-15 01:46:00",3025230,1.755333,301.0667,0.7716617,0.04302969,1.84,0,0.5673333,287.7342,3.622776,0.04697044,0.62,0,-999,0,11.09,87.3,11.19,11.31,0.2,0,0,10.44,13.26,0.2,102.3399,3.317,3.318,3.314,100,0,0,0,169.2,114.5,114.5